Volver al catálogo

HIMAWARI 1 AKM

ActivoMEO
NORAD 59985·ROCKET BODY·🇯🇵 Japan

Lanzado Jul 14, 1977 desde Cape Canaveral Space Force Station

Loading…

Próximos Pases (próximas 24 horas)

TLE

ActualizadoSource: Space-Track

Época: Sep 14, 2026, 00:41 UTC

1 59985U 77065GQ  26257.02872001 -.00000320  00000-0  00000-0 0  9999
2 59985   3.9806 272.0562 0275278 126.3519 235.8973  1.01125675 47349

Sigue HIMAWARI 1 AKM en tiempo real con AllMySat

Download on the App Store